Location: Diebersbach
(48.5163°N, 8.0558°E)
Time: 04:45:22
(UTC+00:00)

USA 290 - Visible Passes

Search period start: 26 October 2021 00:00
Search period end: 05 November 2021 00:00
Orbit: 397 x 413 km, 73.6° (Epoch: 06 October)

Date Brightness Start Highest point End Pass type
(mag) Time Alt. Az. Time Alt. Az. Time Alt. Az.
29 Oct 4.8 05:35:17 10° N 05:37:45 20° NE 05:40:12 10° ESE visible
31 Oct 4.0 05:29:03 10° N 05:31:58 32° ENE 05:34:52 10° SE visible
01 Nov 5.2 04:39:48 10° NNE 04:41:35 14° NE 04:43:20 10° E visible
02 Nov 2.9 05:22:58 10° NNW 05:26:07 56° ENE 05:29:14 10° SE visible
03 Nov 4.7 04:33:16 10° N 04:35:49 21° ENE 04:38:20 10° ESE visible
04 Nov 2.1 05:16:58 10° NNW 05:20:10 78° WSW 05:23:20 10° SSE visible
